Meath Environmental Platform

Observations for Trim Market St

Time AQI Temp °C Hum % Pres Pa CO μg/m³ H₂S μg/m³ NO μg/m³ NO₂ μg/m³ O₃ μg/m³ SO₂ μg/m³ PM1 μg/m³ PM2.5 μg/m³ PM10 μg/m³
Friday 21 August 2026
18:38 3 21.6 50 61,577 0 0 1.88 17.45 57.56 0 0 1.94 2.14
18:35 3 21.8 50 62,008 0 0 1.39 11.72 65.73 0 0 1.95 2.14
18:29 3 22.1 49 62,900 0 0 1.7 18.15 61.53 0 0 2.48 2.73
18:28 3 22.1 49 63,019 0 0 1.75 18.52 60.61 0 1.43 3.51 4.53
18:27 3 22.1 50 63,106 0 0 1.86 11.79 57.84 0 0 1.96 2.16
18:26 3 22.2 50 63,209 0.12 0 1.85 12.06 57.48 0 0 2.47 2.71
18:25 3 22.2 50 63,233 0.43 0 1.85 12.74 59 0 0 2.46 2.71
18:24 3 22.2 50 63,268 0.38 0 1.61 14.49 58.14 0 1.43 5.04 6.03
18:23 3 22.3 50 63,240 0.38 0 1.51 13.2 60.16 0 0 1.96 2.16
18:22 3 22.3 49 63,276 0.64 0 1.25 12.08 62.92 0 0 1.96 2.16
18:20 3 22.3 49 63,280 0 0 1.22 12.01 63.91 0 0 1.96 2.16
18:18 3 22.3 50 63,327 0 0 1.19 13.53 61.54 0 0 1.96 2.16
18:14 3 22.3 50 63,058 0.05 0 1.28 13.42 59.8 0 0 1.95 2.3
18:11 3 22.3 50 62,341 0 0 1.25 11.77 58.99 0 0 1.92 2.11
18:10 3 22.3 51 62,039 0 0 1.32 11.81 59.28 0 0 1.91 2.11
18:04 3 22.2 50 61,482 0 0 1.44 16.99 59.52 0 0 1.92 2.11
18:00 3 22.2 50 61,713 0 0 1.55 22.87 58.11 0 0 1.93 2.12
17:59 3 22.2 50 61,853 0 0 1.55 18.65 59.14 0 0 1.93 2.13
17:58 3 22.3 50 61,960 0.02 0 1.47 15.55 57.5 0 0 1.93 2.13
17:57 3 22.3 50 61,980 0 0 1.34 12.24 58.12 0 0 1.94 2.13